Port Angeles, WA

4:49 AM PDT on August 24, 2016 (GMT -0700)
Fairchild International

Weather History for KCLM - January, 2013

Change the Weather History Date:

Monday, January 14, 2013

  Actual Average Record
Temperature  
Mean Temperature 38 °F -  
Max Temperature 42 °F 45 °F 58 °F (1961)
Min Temperature 34 °F 35 °F 10 °F (1950)
Degree Days  
Heating Degree Days 27    
Moisture  
Dew Point 33 °F    
Average Humidity 84    
Maximum Humidity 93    
Minimum Humidity 73    
Precipitation  
Precipitation 0.00 in - - ()
Sea Level Pressure  
Sea Level Pressure 30.49 in    
Wind  
Wind Speed 2 mph (SW)    
Max Wind Speed 6 mph    
Max Gust Speed -    
Visibility 10 miles    
Events Rain    
Averages and records for this station are not official NWS values.
T = Trace of Precipitation, MM = Missing Value Source: NWS Daily Summary

Daily Weather History Graph

Daily Weather History Graph

Search for Another Location

Airport or City:

Trip Planner

Search our weather history database for the weather conditions in past years. The results will help you decide how hot, cold, wet, or windy it might be!

Date:

Astronomy

Jan. 14, 2013 Rise Set
Actual Time 7:59 AM PST 4:47 PM PST
Civil Twilight 7:24 AM PST 5:22 PM PST
Nautical Twilight 6:45 AM PST 6:01 PM PST
Astronomical Twilight 6:08 AM PST 6:38 PM PST
Moon 9:17 AM PST (1/14) 9:00 PM PST (1/14)
Length of Visible Light 9h 57m
Length of Day
8h 47m
Waxing Crescent, 12% of the Moon is Illuminated
Jan 14
Waxing Crescent
Jan 18
First Quarter
Jan 26
Full
Feb 3
Last Quarter
Feb 9
New

Hourly Weather History & Observations

Time (PST) Temp. Windchill Dew Point Humidity Pressure Visibility Wind Dir Wind Speed Gust Speed Precip Events Conditions
12:53 AM 35.1 °F - 30.0 °F 82% 30.47 in 10.0 mi North - - N/A   Overcast
1:53 AM 34.0 °F - 28.9 °F 82% 30.46 in 10.0 mi North - - N/A   Overcast
2:53 AM 34.0 °F - 30.9 °F 89% 30.47 in 10.0 mi North - - N/A   Overcast
3:12 AM 34.0 °F - 30.9 °F 89% 30.45 in 10.0 mi North - - N/A   Overcast
3:53 AM 35.1 °F - 30.0 °F 82% 30.47 in 10.0 mi North - - N/A   Overcast
4:53 AM 35.1 °F - 30.0 °F 82% 30.46 in 10.0 mi North - - N/A   Overcast
5:44 AM 36.0 °F - 30.0 °F 79% 30.44 in 10.0 mi North - - N/A   Overcast
5:53 AM 35.1 °F - 30.9 °F 85% 30.46 in 10.0 mi North - - N/A   Overcast
6:53 AM 36.0 °F 33.3 °F 30.0 °F 79% 30.45 in 10.0 mi WSW 3.5 mph - N/A   Overcast
7:53 AM 36.0 °F 33.3 °F 30.9 °F 82% 30.47 in 10.0 mi WSW 3.5 mph - N/A   Overcast
8:53 AM 36.0 °F 32.1 °F 30.9 °F 82% 30.48 in 10.0 mi WSW 4.6 mph - N/A   Overcast
9:12 AM 37.0 °F 34.5 °F 30.9 °F 79% 30.46 in 10.0 mi WSW 3.5 mph - N/A   Overcast
9:53 AM 37.9 °F - 32.0 °F 79% 30.48 in 10.0 mi Calm Calm - N/A   Overcast
10:53 AM 39.9 °F - 33.1 °F 77% 30.47 in 10.0 mi Calm Calm - N/A   Overcast
11:28 AM 41.0 °F - 33.1 °F 73% 30.47 in 10.0 mi Calm Calm - N/A   Overcast
11:53 AM 41.0 °F - 34.0 °F 76% 30.48 in 10.0 mi Calm Calm - N/A   Overcast
12:53 PM 42.1 °F 40.2 °F 35.1 °F 76% 30.48 in 10.0 mi NE 3.5 mph - 0.00 in   Overcast
1:53 PM 41.0 °F - 35.6 °F 81% 30.46 in 10.0 mi Calm Calm - N/A   Overcast
2:13 PM 41.0 °F 39.0 °F 35.1 °F 79% 30.47 in 10.0 mi East 3.5 mph - 0.00 in Rain Light Rain
2:53 PM 41.0 °F 39.0 °F 36.0 °F 82% 30.49 in 10.0 mi ESE 3.5 mph - 0.00 in   Overcast
3:00 PM 41.0 °F 38.0 °F 36.0 °F 82% 30.48 in 10.0 mi East 4.6 mph - N/A   Overcast
3:53 PM 41.0 °F 39.0 °F 36.0 °F 82% 30.51 in 10.0 mi East 3.5 mph - N/A   Overcast
4:53 PM 39.9 °F - 36.0 °F 86% 30.51 in 10.0 mi Calm Calm - N/A   Overcast
5:38 PM 39.0 °F - 36.0 °F 89% 30.49 in 10.0 mi Calm Calm - N/A   Overcast
5:53 PM 37.0 °F 34.5 °F 35.1 °F 93% 30.51 in 10.0 mi West 3.5 mph - N/A   Mostly Cloudy
6:27 PM 37.9 °F 35.5 °F 36.0 °F 93% 30.51 in 10.0 mi WNW 3.5 mph - N/A   Mostly Cloudy
6:36 PM 36.0 °F 33.3 °F 34.0 °F 93% 30.51 in 10.0 mi WSW 3.5 mph - N/A   Overcast
6:53 PM 36.0 °F - 34.0 °F 93% 30.53 in 10.0 mi Calm Calm - N/A   Overcast
7:27 PM 35.1 °F - 33.1 °F 92% 30.52 in 10.0 mi Calm Calm - N/A   Overcast
7:53 PM 36.0 °F - 34.0 °F 93% 30.54 in 10.0 mi Calm Calm - N/A   Overcast
8:53 PM 37.0 °F - 34.0 °F 89% 30.54 in 10.0 mi Calm Calm - N/A   Overcast
9:53 PM 37.0 °F 32.4 °F 34.0 °F 89% 30.56 in 10.0 mi SW 5.8 mph - N/A   Overcast
10:53 PM 37.0 °F - 34.0 °F 89% 30.56 in 10.0 mi Calm Calm - N/A   Overcast
11:53 PM 36.0 °F - 33.1 °F 89% 30.56 in 10.0 mi Calm Calm - N/A   Mostly Cloudy